Regional Weather Roundup
Issued by NWS Sioux Falls, SD

Home | Current Version | Previous Version | Graphics & Text | Print | Product List | Glossary Off
Versions: 1 2 3 4 5 6 7 8 9 10 11 12 13 14 15 16 17 18 19 20 21 22 23 24 25 26 27 28 29 30 31 32 33 34 35 36 37 38 39 40 41 42 43 44 45 46 47 48 49 50

000
ASUS43 KFSD 180810
RWRFSD

WEATHER ROUNDUP FOR SE SOUTH DAKOTA/SW MINNESOTA/NW IOWA
NATIONAL WEATHER SERVICE SIOUX FALLS SD
200 AM CST SAT NOV 18 2017

NOTE: "FAIR" INDICATES FEW OR NO CLOUDS BELOW 12,000 FEET WITH NO
SIGNIFICANT WEATHER AND OR OBSTRUCTIONS TO VISIBILITY.


SDZ038>040-050-052>070-180900-
SOUTHEAST SOUTH DAKOTA

CITY           SKY/WX    TMP DP  RH WIND       PRES   REMARKS
BROOKINGS      CLOUDY    30  25  81 N7        29.75S WCI  23
CHAMBERLAIN    CLOUDY    39  32  74 NW8       29.83R
HURON          CLOUDY    30  22  72 N8        29.82R WCI  22
MADISON        CLOUDY    32  32 100 N10       29.75S WCI  24
MITCHELL       CLOUDY    34  25  69 NW13      29.82R WCI  25
SIOUX FALLS    CLOUDY    36  29  75 N12       29.75R
WINNER         CLOUDY    39  35  86 NW8       29.85R
YANKTON        CLOUDY    37  32  82 NW16      29.75S
$$

MNZ071-072-080-081-089-090-097-098-180900-
SOUTHWEST MINNESOTA

CITY           SKY/WX    TMP DP  RH WIND       PRES   REMARKS
FAIRMONT       CLOUDY    35  33  92 N12       29.69R WCI  27
JACKSON        MOCLDY    32  32 100 NW13      29.70R WCI  22
LUVERNE        CLOUDY    32  28  86 N9        29.73R WCI  24
MARSHALL       CLOUDY    29  24  82 N15       29.76S WCI  18
MONTEVIDEO     CLOUDY    28  23  80 N13       29.76S WCI  18
PIPESTONE      CLOUDY    30  25  80 N8        29.72R WCI  23
REDWOOD FALLS  PTCLDY    31  25  78 NW8       29.73R WCI  23
WINDOM           N/A     32  19  59 NW17      29.72R WCI  21
WORTHINGTON    CLOUDY    31  27  85 N16       29.72R WCI  20
$$

IAZ001>003-012>014-020>022-031-032-NEZ013-014-SDZ071-180900-
NORTHWEST IOWA

CITY           SKY/WX    TMP DP  RH WIND       PRES   REMARKS
CHEROKEE       CLOUDY    36  36  98 N13G20    29.69R
DENISON        CLOUDY    39  39 100 NE14      29.63F
ESTHERVILLE    CLOUDY    34  34 100 N13       29.67F WCI  25
LE MARS        CLOUDY    36  34  93 N9        29.71S
ORANGE CITY    CLOUDY    36  34  93 N8        29.70R
SHELDON        CLOUDY    34  32  93 N12       29.69R WCI  25
SIOUX CITY     CLOUDY    38  36  92 N16       29.70R
SPENCER        CLOUDY    36  33  89 N15       29.69R
STORM LAKE     CLOUDY    37  36  93 N17       29.66R FOG
$$

ABBREVIATIONS USED IN REMARKS
   TC - TEMPERATURE IN CELSIUS
  WCI - WIND CHILL INDEX
   HX - HEAT INDEX
  VSB - VISIBILITY





USA.gov is the U.S. government's official web portal to all federal, state and local government web resources and services.